Location: *
(33.8649°S, 62.1526°E)
Time: 07:07:46
(UTC+00:00)

OAO 1 Rocket - Visible Passes

Search period start: 09 May 2021 00:00
Search period end: 19 May 2021 00:00
Orbit: 743 x 756 km, 35.0° (Epoch: 08 May)

Date Brightness Start Highest point End Pass type
(mag) Time Alt. Az. Time Alt. Az. Time Alt. Az.
09 May 4.5 13:55:30 10° W 14:00:52 84° S 14:04:49 19° E visible
09 May 5.7 15:41:21 10° W 15:44:34 37° WSW 15:44:34 37° WSW visible
10 May 4.3 14:55:18 10° W 15:00:41 80° S 15:01:08 73° ESE visible
11 May 4.4 14:09:16 10° W 14:14:38 78° S 14:17:43 26° E visible
11 May 6.3 15:55:03 10° W 15:57:29 27° W 15:57:29 27° W visible
12 May 4.5 13:23:12 10° W 13:28:35 78° S 13:33:57 10° E visible
12 May 4.5 15:09:01 10° W 15:14:07 76° NW 15:14:07 76° NW visible
13 May 4.4 14:22:59 10° W 14:28:21 87° NNW 14:30:48 33° ENE visible
13 May 6.8 16:08:55 10° W 16:10:35 19° W 16:10:35 19° W visible
14 May 4.5 13:36:56 10° W 13:42:20 86° S 13:47:35 11° E visible
14 May 5.3 15:22:47 10° W 15:27:22 44° NW 15:27:22 44° NW visible
15 May 4.9 14:36:42 10° W 14:41:56 56° NNW 14:44:15 31° NE visible
15 May 7.3 16:23:35 10° WNW 16:24:02 11° WNW 16:24:02 11° WNW visible
16 May 4.8 13:50:39 10° W 13:55:58 66° NNW 14:01:15 10° ENE visible
16 May 6.3 15:37:05 10° W 15:41:03 23° NW 15:41:03 23° NW visible
17 May 6.1 14:50:45 10° W 14:55:19 29° NNW 14:58:14 18° NNE visible
18 May 5.8 14:04:32 10° W 14:09:25 36° NNW 14:14:15 10° NE visible
